This is the latest recevied weather packets stored in our database for station/object DM3DP. If no packets are shown the sender has not sent any weather packets the latest 10 day(s).
| Time | Temp. | Humidity | Pressure | Rain* | Wind** | Luminosity | Snow |
|---|---|---|---|---|---|---|---|
| 1777745643 | 20° C | 77% | 1012.4 hPa | 0 mm | - | 7 W/m² | - |
| 1777743333 | 22.22° C | 65% | 1012.5 hPa | 0 mm | - | 31 W/m² | - |
| 1777742674 | 22.22° C | 64% | 1012.8 hPa | 0 mm | - | 42 W/m² | - |
| 1777742343 | 22.22° C | 64% | 1012.9 hPa | 0 mm | - | 42 W/m² | - |
| 1777741684 | 22.78° C | 62% | 1012.9 hPa | 0 mm | - | 21 W/m² | - |
| 1777741353 | 22.78° C | 62% | 1012.8 hPa | 0 mm | - | 13 W/m² | - |
| 1777741023 | 22.78° C | 61% | 1012.8 hPa | 0 mm | - | 19 W/m² | - |
| 1777740694 | 22.78° C | 59% | 1012.8 hPa | 0 mm | - | 30 W/m² | - |
| 1777740034 | 22.78° C | 56% | 1013 hPa | 0 mm | - | 49 W/m² | - |
| 1777739373 | 22.78° C | 57% | 1013 hPa | 0 mm | - | 87 W/m² | - |
| 1777739043 | 22.78° C | 57% | 1013.1 hPa | 0 mm | - | 403 W/m² | - |
| 1777738053 | 23.33° C | 56% | 1013.2 hPa | 0 mm | - | 238 W/m² | - |
| 1777737063 | 23.33° C | 60% | 1013.7 hPa | 0 mm | - | 640 W/m² | - |
| 1777736733 | 23.89° C | 57% | 1013.9 hPa | 0 mm | - | 290 W/m² | - |
| 1777736404 | 23.89° C | 57% | 1013.9 hPa | 0 mm | - | 267 W/m² | - |
| 1777736073 | 23.33° C | 58% | 1013.9 hPa | 0 mm | - | 493 W/m² | - |
| 1777735743 | 23.33° C | 58% | 1013.9 hPa | 0 mm | - | 218 W/m² | - |
| 1777735413 | 23.33° C | 56% | 1013.9 hPa | 0 mm | - | 82 W/m² | - |
| 1777735083 | 23.33° C | 56% | 1013.9 hPa | 0 mm | - | 86 W/m² | - |
| 1777734754 | 23.33° C | 55% | 1013.9 hPa | 0 mm | - | 91 W/m² | - |
| 1777734423 | 23.89° C | 56% | 1014 hPa | 0 mm | - | 165 W/m² | - |
| 1777734094 | 23.89° C | 56% | 1014 hPa | 0 mm | - | 161 W/m² | - |
| 1777733763 | 23.89° C | 56% | 1014 hPa | 0 mm | - | 149 W/m² | - |
| 1777733433 | 23.33° C | 57% | 1014.3 hPa | 0 mm | - | 342 W/m² | - |
| 1777733104 | 23.33° C | 57% | 1014.4 hPa | 0 mm | - | 403 W/m² | - |
* Rain latest hour (hover to see other rain measurements)
** Current wind speed in m/s (hover to see current wind gust speed)